Погода в Ореле

Погода в Ореле : погода сейчас, прогноз погоды и архив. Всё, что Вы хотите узнать о погоде в Ореле!

Хотите узнать прогноз погоды в Ореле? Тогда Вам сюда: Погода в Ореле

Поиск расширенной информации на нашем сайте:

Другие новости

Новости СМИ2

Главная страница сайта

Новости сайта

03.07.2017

Напоминаем, что на нашем специализированном сайте Метеоцентр.Азия вы можете получить высокодетализированные автоматические прогнозы погоды по пунктам России, СНГ и мира в авиационном формате (включающие направление и скорость ветра, видимость, явления погоды, количество и форму облачности, нижнюю и верхнюю границу облачности).


Погода в Ореле - сегодня

Время (UTC), дата Ветер
(°,м/с) 
Видим.   Явления Облачность Т
(°С)
Тd
(°С)
f(%) Тe
(°С)
Pmin
(гПа)
dP
(гПа)
Po
(мм)
O2
(г/м3)
Тmin Tmax R s Состояние
почвы
21 09.02.18 120 (ЮВ) 4000 м  слаб. ливневой снег  10/10 300 м кучево-дожд. 
[Cb calv]
-3.8 -6.4 82 -7  1019.9  0.2  746  306           
09 10.02.18 130 (ЮВ) 10 км    10/10 600 м кучево-дожд. 
[Cb calv]
-4.4 -6.4 86 -8  1020.4  0.4  747  306           
21 10.02.18 140 (ЮВ) 10 км  {ливн. осадки}  10/10 600 м кучево-дожд. 
[Cb calv]
-4 -5.5 89 -5  1019.9  -0.2  746  306           
09 11.02.18 140 (ЮВ) 4000 м  слаб. ливневой снег  10/10 600 м кучево-дожд. 
[Cb calv]
-1.6 -2.7 92 -4  1018.4  -0.3  745  302           
21 11.02.18 120 (ЮВ) 4000 м  слаб. ливневой снег  10/10 300 м кучево-дожд. 
[Cb calv]
-4 -5.5 89 -5  1018.1  745  305           
09 12.02.18 090 (В) 10 км    10/0 верхняя 
[Cs]
-6.1 -13.5 56 -8  1020.7  0.6  747  309           
12 12.02.18 100 (В) 10 км    10/0 верхняя 
[Cs]
-3.9 -15 42 -6  1020.5  747  306           
15 12.02.18 080 (В) 10 км    8/0 верхняя 
[Ci sp]
-5.1 -13 54 -7  1021.2  0.6  747  308           
21 12.02.18 110 (В) 10 км    ясно 
-8.8 -12.6 74 -12  1021.8  0.2  747  312           
00 13.02.18 110 (В) 10 км    ясно 
-9.2 -12.2 79 -11  1022.1  0.2  747  313           
09 13.02.18 100 (В) 10 км    10/0 средняя 
[As op]
-6.7 -11.3 70 -9  1023.4  0.4  749  310           
12 13.02.18 090 (В) 10 км    9/0 верхняя 
[Ci sp]
-6.4 -11.4 68 -9  1023.2  -0.2  748  310           
15 13.02.18 080 (В) 10 км    10/0 средняя 
[As op]
-8 -11.6 75 -11  1023.4  748  312           
21 13.02.18 100 (В) 10 км    10/3 600 м средняя 
[Sc|As op]
-8.7 -11.6 79 -12  1025  -0.1  750  313           
09 14.02.18 080 (В) 10 км  слаб. снег  10/0 средняя 
[As op]
-8.4 -10.7 83 -11  1026.8  1.1  751  313           
15 14.02.18 100 (В) 10 км    10/3 600 м средняя 
[Sc|As op]
-7.7 -10.3 82 -9  1028.3  0.8  752  313         
21 14.02.18 110 (В) 10 км  слаб. снег  10/0 средняя 
[As op]
-8 -10.7 81 -10  1029.9  0.6  753  314           
09 15.02.18 110 (В) 10 км    10/10 600 м 
[Sc]
-5.6 -8.2 82 -8  1032.6  755  312           
12 15.02.18 130 (ЮВ) 10 км    10/10 600 м 
[Sc]
-5.1 -7.6 83 -7  1032.9  0.3  756  311           
21 15.02.18 130 (ЮВ) 10 км    10/10 600 м 
[Sc]
-5.8 -6.9 92 -8  1033.2  -0.5  756  312           
09 16.02.18 140 (ЮВ) 10 км  слаб. снег  10/10 300 м 
[Ns]
-3.4 -5.1 88 -6  1032.3  -0.3  755  309           
15 16.02.18 120 (ЮВ) 10 км    10/10 600 м 
[Sc]
-2.8 -5.1 84 -5  1030.5  -0.5  754  308      0.9     
21 16.02.18 140 (ЮВ) 10 км  слаб. снег  10/10 600 м 
[Ns]
-4 -5.5 89 -5  1029.3  -0.7  753  309           
09 17.02.18 150 (ЮВ) 4000 м  слаб. снег  10/10 300 м 
[Frnb|Ns]
-2.4 -3.6 91 -4  1025.1  -0.9  750  305           
21 17.02.18 140 (ЮВ) 4000 м  слаб. снег  10/10 600 м 
[Ns]
-4.4 -5.3 93 -6  1021.8  -1.1  748  307           
Время (UTC), дата Ветер
(°,м/с) 
Видим.   Явления Облачность Т
(°С)
Тd
(°С)
f(%) Тe
(°С)
Pmin
(гПа)
dP
(гПа)
Po
(мм)
O2
(г/м3)
Тmin Tmax R s Состояние
почвы

Для получения пояснительной информации подведите курсор к названию столбца.

ПОГОДА в Ореле - архив

Всё, что Вы хотите узнать о погоде в Ореле - удобно и подробно!

Выберите нужную дату (начиная с 1 января 2015* года) и нажмите кнопку "Найти".
Будут отображены архивные сводки погоды по пункту Орел, начиная с указанной даты.


Отображать данные в формате CSV (для использования в таблицах Excel)


Внимание! Наш архив погоды предназначен исключительно для личного некоммерческого использования в познавательных целях. Если Вам необходимы официальные справки о состоянии погоды (для производственных, юридических, коммерческих и т.п. целей), обращайтесь в органы Росгидромета.

*Примечание: данная дата относится к архиву по метеостанциям СССР (Россия, СНГ, Балтия).
Архив по метеостанциям Зарубежной Европы и Азии (кроме Китая) хранится 10 дней, по другим регионам земного шара (Китай, Африка, Америка, Австралия, Океания) - 1 день.

Орел - район местоположения метеостанции


Название, широта, долгота, высота метеостанции:
Орел 52.9°ш. 36°д. 196 м над ур. моря [Российская Федерация]

Дополнительная информация

В oтличие oт бoльшинства пoгoдных сайтoв мы публикуем пoдрoбную метеoинфoрмацию в детальнoм прoфессиoнальнoм фoрмате.

Характеристики температуры и влажнoсти вoздуха измеряются на высoте 2 м в тени вдали oт зданий и деревьев.
Скoрoсть ветра измеряется на высoте 10 м (на урoвне рoста челoвека скoрoсть ветра ниже в 1.5-2 раза). Если метеoстанция нахoдится в гoрoде или в лесу, тo скoрoсть ветра занижена на 2-4 м/с пo сравнению с oткрытым местoм. Скoрoсть ветра над акватoриями крупных рек и oзёр, а также на вершинах хoлмoв на 2-5 м/с выше, чем в oбычных услoвиях.
Атмoсфернoе давление в разных тoчках местнoсти мoжет значительнo oтличаться oт давления на метеoстанции, в зависимoсти oт услoвий рельефа (при пoдъёме на 10 м давление пoнижается примернo на 1 мм рт.ст.).